N1068X KCHS-KSAV

Flight info

Callsign N1068X
Flight time 0h 34m
Altitude 6000
Route KCHS LGRHD3 KSAV
Aircraft M20P/L-VGD/C

Departure

Time 2026-05-05 00:55
Airport Charleston International Airport (KCHS)

Arrival

Time 2026-05-05 01:29
Airport Savannah Hilton Head International Airport (KSAV)
Time Latitude Longitude Altitude Speed Heading
2026-05-05 00:30 32.89890 -80.03279 42 ft 0 kts 319°
2026-05-05 00:34 32.89893 -80.03282 42 ft 2 kts 313°
2026-05-05 00:35 32.89895 -80.03286 42 ft 0 kts 319°
2026-05-05 00:51 32.89898 -80.03290 42 ft 1 kts 313°
2026-05-05 00:51 32.89885 -80.03347 41 ft 8 kts 281°
2026-05-05 00:51 32.89860 -80.03420 38 ft 12 kts 239°
2026-05-05 00:51 32.89860 -80.03517 38 ft 14 kts 308°
2026-05-05 00:52 32.89909 -80.03552 39 ft 9 kts 335°
2026-05-05 00:52 32.90002 -80.03569 41 ft 16 kts
2026-05-05 00:52 32.90094 -80.03571 43 ft 0 kts 351°
2026-05-05 00:53 32.90096 -80.03571 43 ft 3 kts 347°
2026-05-05 00:54 32.90168 -80.03607 46 ft 11 kts 335°
2026-05-05 00:54 32.90167 -80.03655 46 ft 10 kts 201°
2026-05-05 00:54 32.90024 -80.03733 40 ft 46 kts 204°
2026-05-05 00:54 32.89645 -80.03957 135 ft 69 kts 207°
2026-05-05 00:55 32.89194 -80.04241 343 ft 77 kts 205°
2026-05-05 00:55 32.88771 -80.04523 676 ft 65 kts 208°
2026-05-05 00:55 32.88347 -80.04924 823 ft 77 kts 213°
2026-05-05 00:55 32.87995 -80.05218 1199 ft 64 kts 209°
2026-05-05 00:56 32.87595 -80.05492 1404 ft 65 kts 193°
2026-05-05 00:56 32.87172 -80.05718 1574 ft 73 kts 210°
2026-05-05 00:56 32.86786 -80.06047 1879 ft 64 kts 210°
2026-05-05 00:56 32.86394 -80.06416 2017 ft 74 kts 210°
2026-05-05 00:57 32.86000 -80.06720 2274 ft 68 kts 204°
2026-05-05 00:57 32.85545 -80.07028 2404 ft 78 kts 213°
2026-05-05 00:57 32.85143 -80.07413 2645 ft 73 kts 210°
2026-05-05 00:57 32.84660 -80.07741 2731 ft 88 kts 207°
2026-05-05 00:58 32.84169 -80.08078 3079 ft 76 kts 206°
2026-05-05 00:58 32.83682 -80.08498 3178 ft 93 kts 214°
2026-05-05 00:58 32.83201 -80.08911 3508 ft 84 kts 207°
2026-05-05 00:58 32.82644 -80.09267 3654 ft 95 kts 204°
2026-05-05 00:59 32.82128 -80.09716 3957 ft 88 kts 214°
2026-05-05 00:59 32.81631 -80.10167 4126 ft 94 kts 215°
2026-05-05 00:59 32.81067 -80.10572 4369 ft 92 kts 205°
2026-05-05 00:59 32.80503 -80.10972 4532 ft 100 kts 214°
2026-05-05 01:00 32.79925 -80.11430 4795 ft 96 kts 211°
2026-05-05 01:00 32.79372 -80.11914 4947 ft 104 kts 217°
2026-05-05 01:00 32.78788 -80.12399 5205 ft 98 kts 207°
2026-05-05 01:00 32.78159 -80.12850 5270 ft 117 kts 213°
2026-05-05 01:01 32.77530 -80.13421 5592 ft 109 kts 217°
2026-05-05 01:01 32.76889 -80.13968 5710 ft 121 kts 210°
2026-05-05 01:01 32.76171 -80.14483 5955 ft 119 kts 207°
2026-05-05 01:01 32.75441 -80.14991 6050 ft 131 kts 211°
2026-05-05 01:02 32.74669 -80.15705 5978 ft 145 kts 217°
2026-05-05 01:02 32.73865 -80.16413 6069 ft 142 kts 210°
2026-05-05 01:02 32.73014 -80.17051 6033 ft 151 kts 211°
2026-05-05 01:02 32.72103 -80.17675 6068 ft 150 kts 204°
2026-05-05 01:03 32.71215 -80.18345 6081 ft 153 kts 215°
2026-05-05 01:03 32.70305 -80.19138 5844 ft 162 kts 210°
2026-05-05 01:03 32.69351 -80.19817 6082 ft 124 kts 205°
2026-05-05 01:03 32.68583 -80.20244 6218 ft 135 kts 197°
2026-05-05 01:04 32.67655 -80.20560 6258 ft 138 kts 197°
2026-05-05 01:04 32.66047 -80.22040 6271 ft 149 kts 220°
2026-05-05 01:04 32.65292 -80.22844 6378 ft 147 kts 217°
2026-05-05 01:05 32.64433 -80.23642 6183 ft 162 kts 215°
2026-05-05 01:05 32.63581 -80.24504 6197 ft 161 kts 217°
2026-05-05 01:05 32.62635 -80.25255 6082 ft 165 kts 206°
2026-05-05 01:05 32.61622 -80.25885 6076 ft 162 kts 207°
2026-05-05 01:06 32.60713 -80.26654 6054 ft 163 kts 213°
2026-05-05 01:06 32.59754 -80.27419 5975 ft 162 kts 209°
2026-05-05 01:06 32.58795 -80.28154 5939 ft 163 kts 211°
2026-05-05 01:06 32.57852 -80.28889 5908 ft 164 kts 210°
2026-05-05 01:07 32.56897 -80.29617 5940 ft 160 kts 209°
2026-05-05 01:07 32.55976 -80.30327 5969 ft 159 kts 211°
2026-05-05 01:07 32.55058 -80.31034 6028 ft 155 kts 209°
2026-05-05 01:07 32.54138 -80.31705 6044 ft 156 kts 208°
2026-05-05 01:08 32.53192 -80.32354 6018 ft 158 kts 206°
2026-05-05 01:08 32.52311 -80.33131 5992 ft 162 kts 221°
2026-05-05 01:08 32.51674 -80.34247 5940 ft 168 kts 244°
2026-05-05 01:08 32.51289 -80.35536 6032 ft 161 kts 250°
2026-05-05 01:09 32.50897 -80.36770 6067 ft 161 kts 241°
2026-05-05 01:09 32.50354 -80.37951 6013 ft 164 kts 241°
2026-05-05 01:09 32.49911 -80.39189 6046 ft 162 kts 244°
2026-05-05 01:09 32.49412 -80.40348 6090 ft 159 kts 236°
2026-05-05 01:10 32.48863 -80.41521 6021 ft 165 kts 239°
2026-05-05 01:10 32.48301 -80.42699 6062 ft 162 kts 240°
2026-05-05 01:10 32.47816 -80.43908 6076 ft 163 kts 243°
2026-05-05 01:10 32.47290 -80.45102 6044 ft 164 kts 237°
2026-05-05 01:11 32.46720 -80.46270 6054 ft 162 kts 236°
2026-05-05 01:11 32.46126 -80.47400 6071 ft 162 kts 237°
2026-05-05 01:11 32.45587 -80.48587 6046 ft 164 kts 240°
2026-05-05 01:11 32.45048 -80.49770 6081 ft 162 kts 237°
2026-05-05 01:12 32.44497 -80.50928 6067 ft 163 kts 239°
2026-05-05 01:12 32.43925 -80.52090 6056 ft 163 kts 234°
2026-05-05 01:12 32.43381 -80.53275 6058 ft 164 kts 242°
2026-05-05 01:12 32.42878 -80.54458 6092 ft 162 kts 237°
2026-05-05 01:13 32.42267 -80.55585 6097 ft 161 kts 232°
2026-05-05 01:13 32.41574 -80.56614 6060 ft 162 kts 224°
2026-05-05 01:13 32.40905 -80.57698 6035 ft 164 kts 236°
2026-05-05 01:13 32.40334 -80.58857 6093 ft 161 kts 239°
2026-05-05 01:14 32.39856 -80.60059 6085 ft 163 kts 244°
2026-05-05 01:14 32.39375 -80.61279 6077 ft 163 kts 242°
2026-05-05 01:14 32.38896 -80.62494 6091 ft 162 kts 242°
2026-05-05 01:14 32.38379 -80.63684 6085 ft 163 kts 239°
2026-05-05 01:15 32.37802 -80.64831 6088 ft 162 kts 239°
2026-05-05 01:15 32.37336 -80.66039 6067 ft 164 kts 245°
2026-05-05 01:15 32.36887 -80.67272 6109 ft 161 kts 243°
2026-05-05 01:15 32.36403 -80.68471 6108 ft 162 kts 242°
2026-05-05 01:16 32.35933 -80.69692 6091 ft 164 kts 244°
2026-05-05 01:16 32.35466 -80.70914 6115 ft 162 kts 242°
2026-05-05 01:16 32.34953 -80.72091 6065 ft 161 kts 240°
2026-05-05 01:16 32.34409 -80.73287 5875 ft 166 kts 239°
2026-05-05 01:17 32.33885 -80.74489 5781 ft 163 kts 240°
2026-05-05 01:17 32.33338 -80.75669 5629 ft 164 kts 240°
2026-05-05 01:17 32.32801 -80.76870 5484 ft 165 kts 240°
2026-05-05 01:17 32.32241 -80.78037 5377 ft 162 kts 240°
2026-05-05 01:18 32.31670 -80.79173 5234 ft 163 kts 239°
2026-05-05 01:18 32.31115 -80.80336 5104 ft 162 kts 241°
2026-05-05 01:18 32.30554 -80.81482 5000 ft 160 kts 239°
2026-05-05 01:18 32.30007 -80.82628 4841 ft 161 kts 242°
2026-05-05 01:19 32.29500 -80.83810 4696 ft 160 kts 245°
2026-05-05 01:19 32.29042 -80.84997 4583 ft 158 kts 245°
2026-05-05 01:19 32.28553 -80.86158 4441 ft 158 kts 242°
2026-05-05 01:19 32.28008 -80.87287 4303 ft 158 kts 239°
2026-05-05 01:20 32.27442 -80.88390 4196 ft 156 kts 237°
2026-05-05 01:20 32.26868 -80.89476 4025 ft 158 kts 241°
2026-05-05 01:20 32.26391 -80.90630 3884 ft 157 kts 244°
2026-05-05 01:20 32.25914 -80.91774 3789 ft 153 kts 240°
2026-05-05 01:21 32.25389 -80.92879 3623 ft 155 kts 237°
2026-05-05 01:21 32.24859 -80.93995 3455 ft 155 kts 240°
2026-05-05 01:21 32.24353 -80.95112 3337 ft 152 kts 239°
2026-05-05 01:21 32.23873 -80.96241 3150 ft 155 kts 240°
2026-05-05 01:22 32.23360 -80.97356 3034 ft 152 kts 234°
2026-05-05 01:22 32.22695 -80.98302 2921 ft 149 kts 219°
2026-05-05 01:22 32.21860 -80.99045 2756 ft 151 kts 213°
2026-05-05 01:22 32.21021 -80.99746 2711 ft 144 kts 214°
2026-05-05 01:23 32.20247 -81.00494 2548 ft 148 kts 219°
2026-05-05 01:23 32.19546 -81.01392 2414 ft 146 kts 224°
2026-05-05 01:23 32.18896 -81.02239 2425 ft 132 kts 222°
2026-05-05 01:23 32.18216 -81.02920 2362 ft 126 kts 213°
2026-05-05 01:24 32.17501 -81.03519 2315 ft 123 kts 211°
2026-05-05 01:24 32.16839 -81.04155 2254 ft 124 kts 217°
2026-05-05 01:24 32.16195 -81.04854 2167 ft 125 kts 218°
2026-05-05 01:24 32.15554 -81.05550 2082 ft 126 kts 218°
2026-05-05 01:25 32.14913 -81.06258 2002 ft 127 kts 221°
2026-05-05 01:25 32.14531 -81.06765 1987 ft 120 kts 223°
2026-05-05 01:25 32.14041 -81.07469 1862 ft 106 kts 223°
2026-05-05 01:25 32.13438 -81.08270 1710 ft 93 kts 217°
2026-05-05 01:26 32.12995 -81.08814 1610 ft 91 kts 226°
2026-05-05 01:26 32.12774 -81.09555 1487 ft 99 kts 250°
2026-05-05 01:26 32.12737 -81.10096 1425 ft 101 kts 259°
2026-05-05 01:26 32.12785 -81.10921 1344 ft 100 kts 268°
2026-05-05 01:27 32.12824 -81.11739 1228 ft 101 kts 263°
2026-05-05 01:27 32.12753 -81.12546 1134 ft 96 kts 248°
2026-05-05 01:27 32.12671 -81.13331 1017 ft 101 kts 263°
2026-05-05 01:27 32.12746 -81.14177 890 ft 104 kts 270°
2026-05-05 01:28 32.12808 -81.15003 772 ft 100 kts 266°
2026-05-05 01:28 32.12799 -81.15822 670 ft 100 kts 265°
2026-05-05 01:28 32.12820 -81.16659 555 ft 103 kts 269°
2026-05-05 01:28 32.12826 -81.17471 366 ft 99 kts 265°
2026-05-05 01:29 32.12844 -81.18236 249 ft 81 kts 265°
2026-05-05 01:29 32.12848 -81.18858 81 ft 74 kts 265°
2026-05-05 01:29 32.12851 -81.19392 46 ft 56 kts 272°
2026-05-05 01:29 32.12855 -81.19691 43 ft 21 kts 271°
2026-05-05 01:30 32.12856 -81.19818 41 ft 7 kts 272°
2026-05-05 01:30 32.12856 -81.19929 38 ft 23 kts 271°
2026-05-05 01:30 32.12859 -81.20112 37 ft 20 kts 268°
2026-05-05 01:30 32.12861 -81.20263 38 ft 14 kts 269°
2026-05-05 01:31 32.12797 -81.20331 36 ft 14 kts 180°
2026-05-05 01:31 32.12768 -81.20331 35 ft 0 kts 179°
2026-05-05 01:33 32.12765 -81.20332 35 ft 0 kts 190°
2026-05-05 01:33 32.12753 -81.20360 35 ft 11 kts 266°
2026-05-05 01:34 32.12753 -81.20483 35 ft 16 kts 270°
2026-05-05 01:34 32.12754 -81.20613 35 ft 16 kts 271°
2026-05-05 01:34 32.12755 -81.20739 35 ft 15 kts 270°
2026-05-05 01:34 32.12757 -81.20862 35 ft 15 kts 269°
2026-05-05 01:35 32.12758 -81.20982 35 ft 15 kts 270°
2026-05-05 01:35 32.12735 -81.21043 35 ft 9 kts 166°
2026-05-05 01:35 32.12698 -81.20966 36 ft 14 kts 88°
2026-05-05 01:35 32.12700 -81.20846 34 ft 15 kts 90°
2026-05-05 01:36 32.12697 -81.20717 33 ft 15 kts 91°
2026-05-05 01:36 32.12685 -81.20651 33 ft 7 kts 161°
2026-05-05 01:36 32.12637 -81.20634 33 ft 7 kts 150°
2026-05-05 01:36 32.12634 -81.20632 33 ft 0 kts 151°